Location: Brahman Valley
(40.6513°N, 111.8855°W)
Time: 08:17:40
(UTC+00:00)

Tiros 1 despin weight - Pass Details

Date: 21 May 2021
Orbit: 594 x 641 km, 48.2° (Epoch: 22 June)

Event Time Altitude Azimuth Distance (km) Brightness Sun altitude
Rises 05:01:47 0° 298° (WNW) 2,934 ? -20.7°
Reaches altitude 10° 05:04:11 10° 304° (NW) 2,028 ? -21.0°
Maximum altitude 05:08:42 47° 19° (NNE) 850 ? -21.5°
Enters shadow 05:10:47 28° 76° (ENE) 1,200 ? -21.7°
Drops below altitude 10° 05:13:13 10° 94° (E) 2,028 - -21.9°
Sets 05:15:38 0° 100° (E) 2,934 - -22.2°
